Wetbulb
50.36 50.47 50.48 50.50 50.36 50.31 50.24 50.15 50.00 50.41 50.83 51.13 51.09 51.46 51.78 51.74 52.35 51.68 50.84 52.39 53.43 56.87 56.27 55.13 55.29 57.11 57.63 55.02 56.53 56.48 48.49 45.94 47.67 48.18 49.39 52.52 51.23 54.56 55.57 54.49 55.65 57.27 60.76 64.75 69.87
49.79 50.00 50.19 50.01 49.86 49.80 49.64 49.57 49.42 49.73 49.91 50.11 50.34 50.96 51.42 51.51 49.90 51.06 53.51 53.90 54.85 55.77 49.99 51.09 51.61 53.31 54.12 53.21 53.39 51.86 47.98 47.83 51.24 51.90 50.79 52.67 52.38 53.94 53.27 54.17 54.34 55.86 63.42 66.31 68.81
49.54 49.68 49.79 49.87 49.88 49.84 49.64 49.40 49.51 49.66 49.90 50.35 50.56 50.99 51.36 51.10 46.35 48.83 53.45 53.05 53.96 55.32 50.93 51.58 53.57 52.68 49.93 53.64 52.11 51.28 47.39 51.03 51.88 52.91 53.72 52.42 52.87 55.09 53.63 52.41 54.44 54.78 57.17 63.38 65.96
49.08 48.93 48.93 49.26 49.28 49.27 49.36 49.03 49.33 50.16 50.69 51.16 51.44 51.38 51.20 48.19 38.60 50.21 52.59 51.92 52.84 53.63 49.92 48.77 50.74 48.42 47.10 47.73 52.65 47.89 50.91 51.42 52.23 52.98 52.95 52.18 54.38 52.76 54.41 54.95 57.50 57.01 57.73 58.75 59.72
48.92 49.14 49.29 49.55 49.50 49.55 49.35 49.56 50.03 50.50 50.80 51.37 51.41 50.90 49.08 41.35 40.22 49.23 51.08 51.08 50.47 49.97 47.78 46.29 45.52 47.59 45.22 47.46 48.83 48.52 50.01 51.21 52.22 51.75 51.78 52.97 51.98 52.47 53.25 56.49 58.26 58.44 58.26 57.55 60.35
49.22 49.28 49.46 49.41 49.54 49.33 49.39 49.29 49.67 50.56 51.74 52.50 51.37 49.58 45.56 37.57 47.31 51.66 50.91 48.94 50.22 48.95 47.22 46.88 44.93 46.26 45.00 45.68 46.57 48.53 48.87 49.52 51.40 51.83 51.58 49.24 49.95 51.72 52.46 55.57 56.08 57.06 57.54 58.62 58.53
49.57 49.48 49.37 49.46 49.45 49.07 49.31 49.31 49.39 50.55 51.63 51.65 51.15 49.80 44.09 40.52 49.60 52.58 51.08 49.51 50.61 49.17 46.00 47.89 47.90 44.83 45.37 43.50 48.11 47.45 44.03 46.37 47.20 48.59 50.25 51.06 46.76 47.94 52.33 53.68 53.50 55.06 56.96 57.90 58.61
49.84 49.50 49.24 49.08 48.88 48.69 49.18 48.84 49.25 51.03 51.27 51.24 50.32 48.31 41.00 47.67 51.92 49.72 50.70 49.17 50.69 50.35 48.41 49.36 49.67 46.49 43.64 44.39 42.33 39.52 41.13 38.08 44.69 46.86 47.65 49.79 43.03 49.21 52.08 52.42 52.21 53.51 55.09 56.45 57.97
49.18 49.11 48.73 48.65 48.91 49.08 49.02 48.52 49.28 51.25 50.93 50.65 48.73 45.96 40.59 49.83 46.41 49.30 50.16 46.36 47.95 48.73 49.43 48.99 47.67 44.16 43.22 39.04 36.97 38.44 34.19 37.11 39.95 45.22 45.10 47.29 45.03 50.42 51.81 51.81 51.88 53.21 54.50 55.56 57.02
48.26 48.29 48.21 48.19 48.57 48.63 48.11 46.79 49.05 50.32 48.36 50.03 47.34 43.52 44.34 41.83 46.07 47.32 50.33 48.23 45.45 46.15 45.18 45.08 44.32 40.35 40.56 37.47 30.79 33.90 34.71 36.45 36.70 41.39 44.04 43.35 43.93 48.26 50.53 50.68 51.29 52.63 53.68 53.84 55.36
47.63 47.98 47.80 47.61 47.69 47.22 48.03 47.30 45.03 43.09 43.98 38.31 38.85 39.61 41.91 46.24 48.01 46.34 48.22 47.07 46.85 44.61 39.35 42.18 37.86 35.13 37.16 38.44 37.96 36.74 35.07 34.48 37.70 40.58 39.24 38.80 40.29 44.16 48.03 49.92 50.34 51.64 52.77 54.06 56.34
47.08 47.47 47.47 47.04 46.91 46.94 48.32 42.14 39.94 41.36 37.78 40.62 41.05 41.40 43.59 45.41 41.23 44.29 49.24 42.42 41.41 37.20 39.77 38.60 35.30 39.66 40.26 39.26 37.71 36.79 34.80 34.71 38.09 40.05 38.92 38.06 38.19 42.35 44.29 46.85 49.07 50.67 51.86 53.40 54.81
47.10 47.48 47.45 46.75 44.60 46.96 44.44 42.07 45.86 45.20 38.25 36.61 40.02 40.42 41.30 43.71 40.20 41.14 45.99 42.84 39.12 36.29 36.78 34.35 37.41 40.17 37.76 36.87 35.24 35.99 34.50 34.96 34.89 38.40 39.54 37.77 35.70 38.36 42.17 45.15 46.69 48.51 50.78 53.36 54.50
47.31 47.38 47.05 46.28 43.12 44.76 42.19 45.00 47.46 47.06 34.90 33.77 38.62 40.35 41.29 41.75 38.65 45.56 46.27 42.23 38.44 34.94 36.74 36.18 39.40 36.93 36.34 34.59 36.45 31.66 38.34 36.45 35.14 34.34 30.32 38.49 28.94 37.22 41.18 43.07 44.88 46.64 49.31 51.10 53.72
47.14 46.97 46.97 45.36 44.13 42.43 42.62 46.72 48.09 43.99 25.98 33.94 36.73 43.98 41.94 38.01 39.60 40.67 45.93 42.23 36.14 35.69 36.17 33.20 35.59 35.08 34.13 34.18 36.92 33.81 38.33 36.43 34.98 34.34 34.04 34.21 31.22 35.27 39.45 39.23 43.52 47.67 48.97 50.46 52.84
46.98 46.75 46.52 45.55 47.08 44.60 46.40 46.37 44.34 32.55 20.40 30.74 36.00 34.74 35.69 37.07 37.28 39.46 39.26 42.84 42.60 37.28 37.69 36.37 41.02 38.21 37.24 38.39 38.40 39.25 35.43 35.43 35.69 33.97 26.25 32.44 32.22 33.11 36.79 38.83 41.49 44.79 49.17 50.94 52.20
46.87 46.32 45.42 47.24 42.29 46.24 47.29 42.90 32.50 27.00 30.43 28.88 30.36 33.92 33.46 32.70 33.53 35.18 34.01 34.24 31.93 27.68 28.84 33.96 35.12 37.70 38.36 35.43 38.14 36.87 32.68 25.86 24.50 25.20 24.91 35.25 32.18 34.92 39.67 41.68 42.85 44.16 45.82 49.32 51.54
46.01 43.09 43.29 46.25 47.13 47.06 44.40 37.43 26.31 24.78 28.17 33.14 32.08 32.73 29.62 32.25 31.75 32.86 31.56 30.90 34.18 31.74 29.02 26.53 25.08 33.28 36.93 35.08 32.57 33.86 32.13 25.48 18.35 22.04 26.95 34.72 29.40 35.38 41.78 43.99 44.93 44.73 47.25 48.84 50.47
43.97 47.68 47.83 46.62 47.36 46.72 40.88 30.89 25.86 28.17 30.85 29.74 31.60 28.02 28.47 30.62 30.30 30.60 30.25 30.06 31.66 32.80 24.65 25.37 24.66 34.96 36.15 37.86 36.72 32.38 29.25 34.90 27.81 29.94 26.17 31.21 35.69 40.27 43.66 43.67 44.94 47.24 50.14 49.68 49.37
45.12 45.67 43.76 47.79 48.34 44.76 38.20 27.36 29.36 32.29 32.74 31.44 25.25 28.55 25.48 28.44 27.38 28.74 27.41 31.44 30.46 33.31 34.24 28.55 22.18 32.64 34.80 37.63 37.65 34.77 36.82 27.02 28.83 20.22 18.83 27.49 30.31 33.56 33.82 36.17 39.49 39.85 43.78 50.13 52.79
44.11 40.79 43.88 46.61 46.17 39.72 30.99 28.14 30.09 33.74 33.84 29.68 27.96 27.19 28.40 26.65 27.90 27.50 26.99 31.12 31.93 31.39 33.61 30.72 27.92 28.10 32.80 30.75 29.40 32.17 30.37 30.36 30.52 28.11 21.38 20.62 26.76 35.14 35.22 36.29 37.85 38.03 40.60 45.60 51.35
41.54 34.46 43.56 45.41 36.03 32.95 31.13 30.30 31.73 32.23 33.96 32.13 32.39 30.62 28.91 28.82 27.38 27.05 26.23 29.63 34.54 33.36 27.41 28.66 26.75 21.85 26.83 34.23 36.28 33.51 29.91 29.21 23.79 22.90 25.94 25.68 27.44 41.36 39.80 39.40 39.29 38.04 39.80 43.44 49.50
37.89 37.35 44.18 43.44 31.02 30.86 31.23 30.19 31.95 30.76 31.25 30.81 29.40 31.07 31.93 28.65 24.05 27.46 28.87 33.64 34.06 31.84 28.73 30.19 25.01 18.70 23.52 30.42 32.10 26.80 30.01 29.93 28.87 27.14 24.48 21.82 26.86 39.91 39.96 40.31 40.29 38.33 39.00 41.97 44.55
38.08 31.59 37.67 40.56 37.72 32.16 29.56 28.84 28.05 32.85 31.62 31.77 30.78 32.17 30.43 27.93 30.21 26.45 28.07 31.77 33.36 32.83 33.25 32.49 26.11 22.10 18.51 22.39 25.79 21.97 25.14 28.19 26.33 23.18 24.83 26.05 28.81 34.63 37.81 38.75 40.11 39.26 39.84 40.58 42.48
37.81 31.02 34.00 30.32 31.48 32.44 31.46 29.47 27.06 26.46 31.28 32.54 29.89 29.87 28.40 23.99 26.07 25.78 29.14 30.23 32.09 33.17 32.27 30.50 22.14 24.14 24.54 26.21 26.57 25.50 25.28 25.81 26.00 27.64 23.02 28.50 30.53 35.02 37.32 38.30 41.02 41.41 39.84 39.16 42.18
34.15 33.25 35.29 33.81 31.17 30.44 29.61 27.64 26.77 27.98 28.82 28.01 27.66 29.85 29.86 25.42 26.07 23.73 27.13 27.95 27.39 30.87 28.81 30.18 22.59 24.92 21.47 26.48 26.68 24.49 27.60 28.47 28.92 30.33 31.09 32.20 31.80 37.06 38.93 40.44 40.55 39.67 40.02 39.89 39.67
39.99 39.21 38.36 30.79 30.47 29.50 29.70 28.72 27.94 29.92 30.89 31.77 30.34 28.55 27.23 29.32 32.55 32.86 32.90 32.03 30.78 28.37 27.60 26.25 24.44 21.95 18.07 25.02 24.04 18.99 25.99 29.47 31.29 33.20 33.18 28.25 32.45 35.55 35.83 38.68 39.09 40.27 40.51 40.85 40.64
MSLP
1024.58 1024.34 1024.18 1023.52 1023.48 1023.28 1023.17 1023.01 1022.73 1022.53 1021.80 1021.20 1020.71 1020.33 1020.10 1019.93 1018.86 1017.37 1017.48 1018.98 1018.63 1018.00 1017.07 1015.64 1015.03 1014.69 1014.23 1013.21 1012.80 1012.17 1010.46 1008.16 1007.73 1007.63 1007.54 1007.84 1007.31 1007.10 1006.74 1006.42 1006.02 1005.87 1006.37 1007.12 1007.65
1025.02 1024.61 1024.13 1023.57 1023.55 1023.46 1023.40 1023.00 1022.89 1022.56 1022.02 1021.38 1021.12 1020.41 1020.17 1019.94 1018.31 1017.79 1019.23 1019.50 1018.71 1018.04 1016.67 1015.56 1015.00 1014.40 1013.58 1012.90 1012.23 1011.48 1009.39 1007.37 1007.81 1007.79 1007.88 1007.91 1007.77 1007.08 1006.87 1006.07 1006.03 1006.13 1006.97 1007.49 1008.10
1025.28 1024.78 1024.30 1023.80 1023.64 1023.49 1023.24 1022.97 1022.62 1022.28 1021.87 1021.42 1021.05 1020.61 1020.27 1020.00 1018.55 1018.61 1019.56 1019.43 1018.67 1017.76 1016.90 1016.13 1015.55 1014.48 1013.23 1012.77 1011.99 1010.86 1008.61 1007.99 1007.77 1008.53 1008.45 1008.22 1007.83 1007.78 1006.81 1005.97 1005.83 1005.90 1005.96 1007.31 1007.93
1025.48 1024.99 1024.53 1024.03 1023.77 1023.47 1023.22 1022.88 1022.55 1022.15 1021.72 1021.25 1020.94 1020.76 1020.29 1019.32 1018.31 1019.11 1019.75 1019.33 1018.57 1017.37 1016.49 1015.97 1015.22 1014.36 1013.69 1012.29 1011.88 1010.80 1009.45 1009.14 1008.91 1008.66 1008.68 1008.46 1008.19 1007.52 1006.97 1006.13 1006.18 1006.13 1006.54 1006.64 1007.01
1025.63 1025.22 1024.69 1024.19 1023.83 1023.49 1023.20 1022.78 1022.39 1021.99 1021.51 1020.97 1020.85 1020.53 1019.42 1018.21 1019.09 1019.60 1019.72 1019.01 1018.00 1017.43 1016.90 1016.36 1015.58 1015.05 1014.11 1012.98 1012.45 1011.17 1009.99 1009.63 1008.98 1009.19 1009.13 1009.14 1008.04 1007.38 1006.32 1006.65 1006.75 1006.61 1006.53 1006.92 1006.63
1025.64 1025.24 1024.80 1024.33 1023.76 1023.27 1022.85 1022.37 1022.03 1021.67 1021.27 1020.75 1020.69 1020.63 1019.47 1018.98 1020.03 1019.72 1019.48 1018.84 1018.23 1017.58 1017.24 1016.92 1016.73 1016.62 1015.59 1014.46 1013.28 1011.37 1010.88 1010.34 1009.87 1009.40 1009.32 1009.04 1008.22 1008.16 1003.92 1006.61 1006.52 1006.46 1006.17 1006.10 1006.24
1025.50 1025.02 1024.59 1024.11 1023.50 1022.90 1022.33 1021.94 1021.71 1021.37 1021.04 1020.76 1020.80 1020.40 1019.33 1020.21 1020.05 1019.49 1019.27 1019.06 1018.86 1018.52 1017.82 1017.81 1017.71 1017.05 1015.96 1014.51 1013.58 1013.01 1011.51 1010.10 1009.18 1008.93 1008.55 1009.00 1007.71 1006.62 1002.40 1006.03 1006.00 1005.83 1005.47 1005.11 1004.97
1025.29 1024.87 1024.40 1023.97 1023.36 1022.63 1021.97 1021.63 1021.32 1021.06 1020.91 1020.81 1020.79 1020.27 1019.68 1020.07 1019.79 1019.36 1019.14 1018.89 1019.00 1018.74 1018.64 1018.30 1018.03 1017.37 1016.57 1015.27 1014.31 1012.95 1011.60 1009.19 1007.80 1006.98 1007.31 1008.32 1005.02 1005.23 1004.31 1005.30 1004.85 1004.91 1004.77 1004.34 1004.29
1025.13 1024.76 1024.34 1023.82 1022.98 1022.08 1021.42 1021.14 1020.91 1020.85 1020.86 1020.86 1020.38 1019.65 1019.41 1019.80 1019.42 1019.57 1019.54 1019.08 1018.89 1018.53 1018.40 1018.42 1017.93 1016.78 1016.22 1015.17 1013.49 1011.95 1010.36 1008.72 1007.38 1007.33 1007.62 1007.25 1004.98 1005.22 1005.07 1004.57 1003.95 1003.90 1003.61 1003.25 1002.94
1025.11 1024.75 1024.23 1023.68 1022.87 1021.87 1021.19 1021.00 1020.75 1020.70 1020.56 1020.26 1020.09 1019.72 1019.65 1019.67 1019.71 1019.78 1019.62 1019.53 1018.92 1018.40 1017.77 1017.66 1017.37 1016.31 1015.47 1014.56 1012.63 1011.22 1010.24 1009.19 1008.09 1008.23 1008.08 1007.26 1005.55 1005.53 1005.10 1004.55 1003.79 1003.33 1002.70 1002.26 1001.88
1025.09 1024.70 1024.20 1023.64 1022.94 1022.07 1020.72 1020.63 1020.55 1020.24 1020.35 1020.99 1021.07 1020.63 1020.29 1020.13 1019.83 1019.41 1019.45 1019.24 1018.74 1018.11 1017.20 1017.52 1016.69 1015.20 1014.68 1014.34 1013.72 1013.15 1012.15 1010.67 1009.66 1009.31 1008.95 1007.46 1006.63 1006.37 1005.48 1004.61 1003.76 1003.28 1002.66 1001.73 1001.47
1025.10 1024.66 1024.20 1023.68 1023.17 1022.41 1021.07 1021.22 1022.86 1023.22 1021.75 1021.45 1021.24 1021.06 1020.90 1020.57 1019.63 1019.32 1019.61 1018.97 1018.57 1017.89 1017.82 1017.30 1016.17 1015.65 1015.39 1015.20 1014.66 1013.93 1012.82 1011.36 1010.16 1009.73 1009.26 1007.74 1006.03 1006.10 1005.62 1004.66 1004.03 1003.74 1002.88 1001.84 1001.23
1025.05 1024.64 1024.17 1023.73 1023.27 1022.79 1022.48 1023.15 1023.40 1023.26 1021.89 1021.40 1021.04 1020.57 1020.42 1020.60 1019.74 1019.24 1019.50 1019.16 1018.63 1018.17 1017.76 1017.32 1016.28 1016.23 1015.92 1015.30 1014.83 1013.94 1013.06 1011.89 1011.05 1010.19 1009.54 1008.42 1005.38 1005.51 1005.11 1004.50 1003.77 1003.38 1003.11 1002.32 1000.93
1025.02 1024.68 1024.29 1023.68 1023.49 1023.40 1023.07 1023.57 1023.34 1023.37 1021.54 1021.52 1020.61 1020.46 1020.14 1020.00 1019.59 1019.63 1019.57 1019.65 1018.75 1018.35 1017.94 1017.14 1016.55 1016.46 1015.77 1015.28 1015.02 1013.89 1013.27 1012.73 1011.84 1010.56 1008.53 1007.92 1003.99 1004.04 1003.56 1002.23 1001.89 1001.73 1001.88 1001.34 1000.75
1024.95 1024.81 1024.49 1024.13 1023.74 1023.19 1023.94 1023.76 1023.60 1023.32 1022.12 1021.90 1020.58 1020.50 1020.02 1019.95 1019.85 1019.10 1019.63 1019.22 1018.81 1018.24 1018.38 1017.22 1016.63 1016.00 1015.30 1014.99 1014.92 1014.04 1013.62 1013.08 1012.34 1010.80 1009.04 1007.56 1005.56 1003.17 1003.20 1002.00 1001.35 1000.29 1000.11 1000.19 999.96
1024.90 1024.75 1024.58 1024.03 1023.87 1023.98 1023.98 1023.83 1023.55 1022.66 1022.30 1021.58 1020.99 1020.62 1020.24 1020.19 1019.90 1019.75 1019.64 1019.72 1019.21 1018.79 1017.96 1017.57 1016.97 1016.52 1015.52 1015.19 1014.73 1014.45 1013.93 1012.83 1011.93 1010.43 1008.52 1006.77 1005.42 1001.91 1001.46 1000.69 1000.24 999.93 999.37 998.84 998.88
1024.88 1024.61 1024.13 1024.14 1023.85 1024.19 1023.84 1023.03 1022.70 1022.37 1022.98 1022.08 1021.55 1021.24 1020.89 1020.63 1020.34 1020.26 1020.09 1019.90 1020.03 1019.58 1018.07 1016.99 1015.63 1016.20 1016.17 1014.89 1013.99 1013.90 1013.66 1012.15 1010.59 1009.40 1007.12 1005.35 1003.90 1001.36 1001.18 1000.64 999.67 999.21 998.59 998.55 998.64
1024.81 1024.62 1024.75 1024.46 1024.35 1024.14 1023.27 1022.55 1022.41 1023.24 1022.63 1022.72 1022.25 1021.63 1021.26 1021.54 1021.08 1021.01 1020.85 1020.60 1021.26 1020.99 1019.69 1018.24 1016.55 1016.15 1016.04 1015.58 1014.80 1014.16 1014.06 1013.63 1011.51 1009.19 1006.74 1004.86 1002.94 1000.91 1000.43 1000.06 1000.14 999.85 998.95 998.61 998.31
1024.62 1024.34 1024.17 1024.66 1024.45 1023.95 1022.98 1022.55 1023.29 1023.18 1023.44 1023.07 1022.25 1021.76 1021.59 1021.84 1022.17 1021.71 1021.32 1021.36 1021.97 1021.99 1021.82 1019.90 1018.00 1016.96 1015.96 1015.37 1015.23 1014.20 1014.29 1014.26 1013.13 1010.60 1008.42 1005.31 1003.34 1001.91 1002.62 1001.81 1002.54 1001.45 1000.04 998.88 997.80
1024.16 1023.98 1024.57 1025.01 1024.64 1023.56 1023.19 1023.70 1023.68 1023.93 1023.78 1023.51 1022.73 1022.70 1022.01 1021.85 1022.29 1021.94 1021.66 1022.07 1022.18 1022.44 1022.48 1021.35 1019.42 1017.08 1016.13 1015.64 1015.10 1015.36 1015.37 1014.69 1014.00 1011.84 1009.04 1006.17 1004.63 1004.08 1005.18 1005.35 1005.16 1004.62 1003.40 1000.99 999.36
1024.15 1023.59 1024.99 1025.06 1024.58 1023.80 1023.81 1024.16 1024.19 1024.22 1024.16 1023.82 1023.30 1023.01 1022.64 1022.64 1022.59 1022.27 1021.96 1021.88 1022.56 1022.46 1022.28 1021.80 1020.82 1017.81 1016.95 1015.74 1015.80 1015.57 1015.62 1015.92 1015.54 1013.79 1011.51 1008.63 1006.40 1006.88 1006.60 1006.66 1006.45 1006.39 1005.30 1003.45 1000.60
1024.17 1024.18 1025.13 1024.88 1024.49 1025.05 1024.66 1024.60 1025.00 1024.25 1024.27 1024.04 1023.90 1023.46 1023.08 1022.94 1022.60 1022.38 1022.08 1021.90 1022.20 1022.46 1022.12 1022.02 1021.56 1019.07 1017.22 1016.34 1016.56 1016.51 1016.87 1017.09 1016.50 1014.67 1013.34 1011.01 1007.19 1006.37 1005.97 1006.58 1007.79 1007.43 1006.56 1004.88 1001.98
1024.24 1024.52 1025.12 1025.00 1024.50 1024.98 1024.99 1024.88 1024.81 1024.41 1024.17 1024.09 1023.86 1023.67 1023.45 1023.35 1023.17 1022.45 1022.28 1022.19 1022.42 1022.55 1022.36 1022.58 1021.24 1019.93 1017.29 1016.51 1017.27 1017.67 1017.97 1017.89 1017.55 1016.23 1013.47 1011.43 1008.05 1006.85 1006.72 1006.63 1007.45 1007.89 1007.14 1005.54 1003.37
1024.54 1024.97 1025.23 1025.03 1025.04 1024.81 1024.75 1024.64 1024.61 1024.82 1024.51 1024.33 1024.04 1023.90 1023.59 1023.40 1023.42 1022.83 1022.29 1022.11 1022.51 1022.45 1022.68 1022.71 1021.81 1020.94 1019.43 1018.47 1018.85 1018.08 1017.83 1017.66 1017.24 1015.65 1013.21 1011.50 1009.13 1007.26 1006.86 1007.06 1006.95 1007.19 1007.10 1005.96 1004.23
1024.94 1025.32 1025.35 1025.16 1025.31 1025.01 1025.06 1024.92 1024.51 1024.45 1024.57 1024.33 1023.83 1023.82 1023.69 1023.72 1023.33 1022.73 1022.20 1021.97 1022.05 1021.75 1021.94 1021.93 1021.40 1021.01 1020.37 1019.43 1018.61 1017.49 1016.63 1016.11 1015.22 1014.37 1013.66 1011.06 1009.50 1008.50 1008.13 1007.75 1007.38 1007.34 1006.87 1006.31 1004.86
1025.01 1025.22 1025.68 1025.12 1025.22 1025.10 1025.20 1024.77 1024.52 1024.31 1024.55 1023.88 1023.96 1023.86 1023.86 1024.01 1023.91 1023.15 1022.86 1022.49 1021.76 1021.47 1021.73 1021.98 1021.47 1020.90 1019.88 1018.64 1017.58 1016.08 1014.86 1013.94 1013.07 1012.28 1011.67 1010.69 1009.99 1010.55 1009.85 1008.35 1007.60 1007.57 1007.12 1006.44 1006.09
1025.06 1025.49 1025.17 1025.36 1025.05 1025.00 1024.69 1024.44 1024.43 1024.56 1024.26 1024.23 1024.24 1024.21 1023.91 1023.68 1023.57 1023.33 1022.96 1022.27 1021.83 1021.55 1021.21 1021.28 1021.08 1020.54 1018.63 1017.93 1016.84 1014.90 1012.83 1011.82 1011.22 1011.01 1010.98 1011.27 1011.49 1011.03 1010.04 1008.82 1008.26 1007.81 1007.35 1006.93 1006.09
Wind_Speed
13 13 12 14 14 14 14 14 14 15 16 17 18 19 19 19 19 4 10 10 12 16 19 8 5 4 8 9 11 8 11 17 22 20 16 5 5 1 5 11 10 4 4 8 4
12 13 13 14 13 13 13 13 13 13 14 14 15 17 18 19 5 11 9 13 14 17 11 9 6 6 9 10 9 14 16 27 18 13 18 15 14 17 9 12 11 11 3 3 5
12 12 13 13 13 13 14 14 14 14 13 13 13 14 15 15 5 5 10 15 14 15 6 5 8 6 12 12 17 14 27 20 16 9 16 19 20 18 21 20 15 13 6 2 3
12 12 12 13 13 13 14 14 13 13 13 13 12 13 15 7 2 6 11 15 12 11 8 5 4 5 7 13 16 24 27 22 20 19 17 18 15 16 19 21 19 11 6 12 9
10 11 12 13 13 14 14 12 11 11 12 12 11 10 7 2 7 6 12 12 7 6 8 6 5 6 10 8 11 23 25 23 19 18 21 20 25 27 31 26 23 21 19 15 11
11 12 12 13 14 16 15 13 12 11 10 9 5 5 3 7 5 9 9 4 7 6 6 8 6 7 10 12 14 12 19 20 20 20 21 24 25 22 39 23 24 24 24 23 21
12 13 14 16 17 18 17 15 13 6 5 2 5 1 7 8 4 8 6 6 6 8 6 4 6 8 7 10 11 17 23 22 23 24 23 13 23 31 45 19 22 23 21 20 19
12 14 15 17 18 20 18 15 9 2 5 6 5 2 7 1 6 5 4 1 2 6 6 5 5 9 10 11 17 21 22 22 16 11 16 22 32 31 31 24 26 25 23 24 24
13 14 16 17 19 21 18 14 2 6 8 9 3 4 6 3 4 7 6 7 8 8 6 8 7 9 8 13 15 15 19 26 25 17 15 20 30 24 24 26 25 20 20 19 22
13 14 16 18 20 19 19 4 5 8 4 4 3 3 5 8 8 6 3 4 3 5 4 5 7 9 9 11 15 18 20 23 25 17 16 22 28 22 23 23 23 22 24 26 21
14 15 17 18 19 18 9 5 3 5 9 7 4 3 3 11 1 3 4 4 4 3 4 2 9 9 12 13 16 18 20 26 25 22 23 28 29 26 23 22 21 20 22 22 17
13 14 17 19 14 15 9 7 6 3 4 4 1 3 3 5 3 4 3 6 5 7 4 6 11 11 10 11 13 16 19 23 24 20 19 25 30 25 25 29 23 21 22 23 24
12 15 17 19 6 3 14 10 5 4 1 3 2 3 6 3 5 8 6 5 7 6 8 10 11 9 9 11 13 17 19 21 24 22 22 24 33 29 29 29 28 28 28 26 25
12 14 16 20 3 4 6 7 5 5 2 4 2 4 5 4 2 4 2 5 6 9 10 9 2 9 12 13 12 18 17 15 17 17 17 13 23 21 19 22 27 29 28 29 29
12 12 13 11 4 2 5 8 1 4 3 3 3 3 8 6 8 5 4 4 12 14 8 10 11 13 14 4 7 12 13 18 17 18 18 20 18 17 18 23 24 23 25 26 30
12 12 12 2 0 4 6 4 5 3 4 1 3 7 12 5 6 8 6 3 10 10 10 14 15 12 8 9 8 12 13 17 20 18 16 23 21 18 17 21 23 25 24 21 24
12 12 4 1 3 5 6 4 2 3 2 3 4 9 9 8 5 10 11 8 8 7 7 15 9 3 6 12 2 8 11 6 6 9 12 13 12 18 17 21 18 20 26 23 21
13 3 4 5 4 5 4 2 1 0 2 2 4 10 4 9 5 11 11 5 9 10 10 10 0 4 7 11 10 16 7 7 7 14 18 19 12 10 7 13 21 23 23 21 21
7 2 2 7 4 4 3 3 3 1 2 6 9 4 1 2 6 7 9 6 5 11 7 7 7 20 16 9 9 6 8 16 10 18 13 12 15 21 20 23 27 28 23 23 24
1 1 4 7 6 4 1 5 3 2 1 3 3 2 6 8 7 9 6 2 6 7 6 7 13 12 4 14 7 9 11 6 5 8 12 12 16 9 23 25 25 25 27 24 20
1 2 4 6 6 3 3 3 3 2 2 3 3 6 7 7 7 10 4 3 5 8 10 9 5 11 18 4 15 12 4 5 5 6 6 10 8 4 12 22 23 21 23 29 20
1 3 4 5 2 2 2 2 1 1 2 3 5 8 9 8 11 9 8 5 6 12 12 2 6 13 17 17 5 3 6 8 6 9 14 13 15 1 22 20 15 20 21 24 26
2 2 2 4 1 2 3 2 2 2 2 2 3 5 7 10 7 4 8 8 13 8 7 9 4 12 11 9 4 4 8 6 10 12 15 13 12 22 24 19 15 15 18 20 23
3 3 2 2 1 1 1 1 3 2 6 6 6 6 10 9 8 9 14 9 8 16 19 14 14 15 14 16 14 20 19 15 12 10 16 16 23 23 22 21 21 14 17 18 20
2 2 1 3 3 3 2 2 3 3 5 5 4 7 7 7 13 17 15 17 21 18 14 7 11 12 15 21 20 23 22 22 18 18 17 22 24 19 20 22 16 17 16 16 17
4 4 2 3 4 4 4 4 4 2 4 4 8 10 11 11 13 19 20 18 19 16 12 7 10 14 18 22 21 23 21 23 24 21 16 19 18 23 22 20 15 14 15 11 14
2 2 1 4 5 4 3 4 3 1 5 7 6 10 15 16 15 17 18 21 22 22 19 16 15 14 20 15 12 16 21 19 10 12 14 12 12 20 17 18 12 15 14 7 11
Wind_Direction
27 22 17 21 13 7 2 355 353 345 344 343 341 340 339 340 310 220 57 11 334 329 310 318 256 284 245 241 230 234 244 246 246 243 253 236 264 166 296 264 223 207 326 2 96
20 19 16 17 8 1 353 352 346 340 338 333 329 329 329 334 332 73 44 354 344 339 346 356 347 299 242 245 222 225 239 245 253 256 250 265 264 275 269 244 232 223 143 74 127
18 15 13 12 5 356 349 345 341 336 331 321 318 319 317 312 225 69 18 353 349 322 337 316 302 290 247 233 236 235 245 257 248 272 259 266 261 265 268 255 251 255 213 204 197
16 13 10 9 360 350 343 339 333 327 318 307 309 314 312 258 11 54 349 342 330 320 341 319 278 266 265 236 229 251 258 264 271 280 250 253 268 256 261 261 272 269 254 278 253
15 11 9 4 353 344 338 334 328 318 305 297 299 319 306 107 57 5 328 334 324 359 18 2 319 301 258 272 283 262 265 273 275 259 259 265 261 268 262 259 267 266 267 263 261
11 7 4 356 349 344 339 338 336 321 307 283 280 288 304 85 349 349 345 340 27 7 17 14 357 330 282 273 266 300 300 286 275 269 270 259 260 265 258 250 257 260 263 262 252
2 3 359 353 346 340 335 338 337 316 345 122 159 310 70 71 326 354 25 36 27 10 333 20 338 284 339 269 280 294 285 279 260 254 242 258 257 239 257 256 260 261 258 258 250
358 359 356 350 341 336 330 333 338 131 92 122 160 235 78 96 342 359 336 84 277 311 304 307 317 286 262 288 279 273 279 276 269 246 252 222 256 248 258 256 253 252 251 257 254
359 356 351 348 341 335 331 337 144 136 130 142 199 287 77 158 12 14 351 328 311 289 271 276 251 272 263 260 269 244 260 267 271 265 292 241 256 263 265 258 261 256 255 254 256
357 356 351 350 343 334 333 336 95 157 170 179 115 185 62 357 339 337 34 329 320 318 170 196 226 260 237 249 260 280 266 261 265 271 278 274 274 271 264 269 268 263 248 246 251
358 358 353 352 347 342 334 185 194 151 40 33 19 34 358 344 206 33 16 326 328 259 338 224 261 261 284 270 282 292 281 276 277 279 272 267 273 278 281 272 272 269 256 257 242
358 358 354 352 351 347 26 67 54 10 85 48 37 310 288 329 317 66 299 337 334 346 298 241 261 307 313 291 280 274 274 273 277 278 269 273 269 267 256 264 263 266 271 260 257
1 357 351 347 337 18 60 58 338 198 26 81 356 10 19 304 347 2 322 335 327 308 306 293 291 312 291 280 270 268 269 277 285 294 282 277 272 265 258 259 255 251 253 264 265
356 354 354 336 257 348 56 359 346 205 133 52 84 75 338 296 211 346 343 320 277 296 318 286 296 286 293 285 272 274 289 288 283 282 277 300 287 284 280 260 235 242 243 242 249
350 356 355 6 349 28 25 344 145 233 191 13 70 0 348 352 323 122 4 267 289 296 282 277 295 311 295 320 300 281 296 286 288 283 283 264 261 273 255 251 261 260 241 238 238
343 344 334 204 278 17 330 315 218 229 88 136 9 350 344 358 340 333 340 273 286 287 268 255 264 278 261 308 290 299 287 269 253 257 258 262 257 271 262 254 247 254 262 246 239
341 344 353 352 27 318 301 227 232 18 225 66 347 337 331 343 338 348 341 13 5 317 323 304 271 218 247 312 271 289 319 288 244 220 254 282 277 273 264 282 252 259 250 251 255
348 352 56 42 323 306 260 230 57 246 31 21 319 316 340 358 8 338 340 353 33 17 308 342 300 348 360 308 306 305 306 287 297 302 301 304 272 259 286 266 250 261 269 270 267
321 91 58 16 353 300 282 67 75 36 27 337 309 294 109 356 331 323 325 324 40 30 8 317 283 322 296 301 295 328 287 314 270 272 258 252 259 266 15 4 8 346 328 294 267
32 138 59 340 321 287 0 96 108 79 338 284 304 328 311 337 323 334 323 9 11 28 339 317 297 292 323 302 271 257 324 324 328 300 307 315 308 44 11 352 345 344 329 325 320
191 167 65 328 275 25 65 88 126 163 311 288 307 287 301 330 296 315 288 355 33 341 334 317 256 290 308 291 322 303 306 343 275 265 317 317 324 166 351 339 338 329 326 319 320
150 113 33 299 36 13 99 64 357 187 236 253 270 272 281 301 300 294 280 293 354 339 316 354 286 283 291 294 283 352 11 347 312 329 306 284 287 26 346 343 351 318 316 313 319
83 86 86 279 120 117 144 175 260 242 229 216 255 250 283 294 297 288 269 309 308 307 327 325 277 309 295 182 146 2 328 293 315 280 282 300 294 325 309 336 332 319 311 314 318
126 131 72 41 6 203 197 216 184 210 267 265 272 267 275 275 267 274 282 294 284 290 305 288 264 254 279 313 313 297 292 288 285 274 304 292 293 309 329 334 323 328 310 324 318
6 104 30 153 178 210 202 211 227 242 224 244 243 253 283 283 292 281 291 301 300 294 284 258 274 275 279 274 275 280 280 281 268 265 271 290 294 330 337 326 336 322 327 327 328
136 153 197 138 159 211 170 224 242 265 235 249 256 295 294 279 271 293 295 293 294 295 282 271 270 281 284 275 268 276 280 277 273 268 256 295 313 349 327 328 339 341 335 334 354
115 84 256 145 166 190 222 206 194 241 273 264 292 297 290 292 304 297 291 283 275 281 284 279 264 260 268 294 308 280 249 255 281 273 307 311 329 336 324 328 354 353 347 1 19